Time,TemperatureF,DewpointF,PressureIn,WindDirection,WindDirectionDegrees,WindSpeedMPH,WindSpeedGustMPH,Humidity,HourlyPrecipIn,Conditions,Clouds,dailyrainin,SolarRadiationWatts/m^2,SoftwareType,DateUTC
2013-01-18 00:02:00,18.0,9.0,-100.00,West,280,1.0,3.0,67,0.00,,,0.00,0.000000,,2013-01-18 07:02:00,
2013-01-18 00:12:00,18.0,9.0,-100.00,West,280,1.0,3.0,67,0.00,,,0.00,0.000000,,2013-01-18 07:12:00,
2013-01-18 00:22:00,18.0,9.0,-100.00,West,280,1.0,3.0,67,0.00,,,0.00,0.000000,,2013-01-18 07:22:00,
2013-01-18 00:42:00,18.0,8.0,-100.00,West,271,2.0,3.0,65,0.00,,,0.00,0.000000,,2013-01-18 07:42:00,
2013-01-18 00:52:00,18.0,8.0,-100.00,West,271,2.0,3.0,65,0.00,,,0.00,0.000000,,2013-01-18 07:52:00,
2013-01-18 01:02:00,18.0,8.0,-100.00,West,271,2.0,3.0,65,0.00,,,0.00,0.000000,,2013-01-18 08:02:00,
2013-01-18 01:12:00,18.0,8.0,-100.00,West,271,2.0,3.0,65,0.00,,,0.00,0.000000,,2013-01-18 08:12:00,
2013-01-18 01:22:00,18.0,8.0,-100.00,West,271,2.0,3.0,65,0.00,,,0.00,0.000000,,2013-01-18 08:22:00,
2013-01-18 01:43:00,18.0,9.0,-100.00,WSW,258,2.0,3.0,68,0.00,,,0.00,0.000000,,2013-01-18 08:43:00,
2013-01-18 01:53:00,18.0,9.0,-100.00,WSW,258,2.0,3.0,68,0.00,,,0.00,0.000000,,2013-01-18 08:53:00,
2013-01-18 02:02:00,18.0,9.0,-100.00,WSW,258,2.0,3.0,68,0.00,,,0.00,0.000000,,2013-01-18 09:02:00,
2013-01-18 02:12:00,18.0,9.0,-100.00,WSW,258,2.0,3.0,68,0.00,,,0.00,0.000000,,2013-01-18 09:12:00,
2013-01-18 02:22:00,18.0,9.0,-100.00,WSW,258,2.0,3.0,68,0.00,,,0.00,0.000000,,2013-01-18 09:22:00,
2013-01-18 02:43:00,17.0,7.0,-100.00,West,279,2.0,3.0,64,0.00,,,0.00,0.000000,,2013-01-18 09:43:00,
2013-01-18 02:53:00,17.0,7.0,-100.00,West,279,2.0,3.0,64,0.00,,,0.00,0.000000,,2013-01-18 09:53:00,
2013-01-18 03:02:00,17.0,7.0,-100.00,West,279,2.0,3.0,64,0.00,,,0.00,0.000000,,2013-01-18 10:02:00,
2013-01-18 03:12:00,17.0,7.0,-100.00,West,279,2.0,3.0,64,0.00,,,0.00,0.000000,,2013-01-18 10:12:00,
2013-01-18 03:22:00,17.0,7.0,-100.00,West,279,2.0,3.0,64,0.00,,,0.00,0.000000,,2013-01-18 10:22:00,
2013-01-18 03:43:00,16.0,6.0,-100.00,West,268,2.0,3.0,63,0.00,,,0.00,0.000000,,2013-01-18 10:43:00,
2013-01-18 03:53:00,16.0,6.0,-100.00,West,268,2.0,3.0,63,0.00,,,0.00,0.000000,,2013-01-18 10:53:00,
2013-01-18 04:02:00,16.0,6.0,-100.00,West,268,2.0,3.0,63,0.00,,,0.00,0.000000,,2013-01-18 11:02:00,
2013-01-18 04:12:00,16.0,6.0,-100.00,West,268,2.0,3.0,63,0.00,,,0.00,0.000000,,2013-01-18 11:12:00,
2013-01-18 04:22:00,16.0,6.0,-100.00,West,268,2.0,3.0,63,0.00,,,0.00,0.000000,,2013-01-18 11:22:00,
2013-01-18 04:43:00,17.0,6.0,-100.00,West,260,2.0,4.0,60,0.00,,,0.00,0.000000,,2013-01-18 11:43:00,
2013-01-18 04:53:00,17.0,6.0,-100.00,West,260,2.0,4.0,60,0.00,,,0.00,0.000000,,2013-01-18 11:53:00,
2013-01-18 05:03:00,17.0,6.0,-100.00,West,260,2.0,4.0,60,0.00,,,0.00,0.000000,,2013-01-18 12:03:00,
2013-01-18 05:12:00,17.0,6.0,-100.00,West,260,2.0,4.0,60,0.00,,,0.00,0.000000,,2013-01-18 12:12:00,
2013-01-18 05:22:00,17.0,6.0,-100.00,West,260,2.0,4.0,60,0.00,,,0.00,0.000000,,2013-01-18 12:22:00,
2013-01-18 05:23:00,17.0,3.0,-100.00,West,274,3.0,4.0,53,0.00,,,0.00,0.000000,,2013-01-18 12:23:00,
2013-01-18 05:43:00,17.0,3.0,-100.00,West,274,3.0,4.0,53,0.00,,,0.00,0.000000,,2013-01-18 12:43:00,
2013-01-18 05:53:00,17.0,3.0,-100.00,West,274,3.0,4.0,53,0.00,,,0.00,0.000000,,2013-01-18 12:53:00,
2013-01-18 06:03:00,17.0,3.0,-100.00,West,274,3.0,4.0,53,0.00,,,0.00,0.000000,,2013-01-18 13:03:00,
2013-01-18 06:12:00,17.0,3.0,-100.00,West,274,3.0,4.0,53,0.00,,,0.00,0.000000,,2013-01-18 13:12:00,
2013-01-18 06:43:00,18.0,1.0,-100.00,WNW,290,2.0,3.0,47,0.00,,,0.00,0.000000,,2013-01-18 13:43:00,
2013-01-18 06:53:00,18.0,1.0,-100.00,WNW,290,2.0,3.0,47,0.00,,,0.00,0.000000,,2013-01-18 13:53:00,
2013-01-18 07:03:00,18.0,1.0,-100.00,WNW,290,2.0,3.0,47,0.00,,,0.00,0.000000,,2013-01-18 14:03:00,
2013-01-18 07:12:00,18.0,1.0,-100.00,WNW,290,2.0,3.0,47,0.00,,,0.00,0.000000,,2013-01-18 14:12:00,
2013-01-18 07:22:00,18.0,1.0,-100.00,WNW,290,2.0,3.0,47,0.00,,,0.00,0.000000,,2013-01-18 14:22:00,
2013-01-18 07:23:00,16.0,3.0,-100.00,ESE,117,2.0,4.0,55,0.00,,,0.00,1.000000,,2013-01-18 14:23:00,
2013-01-18 07:43:00,16.0,3.0,-100.00,ESE,117,2.0,4.0,55,0.00,,,0.00,1.000000,,2013-01-18 14:43:00,
2013-01-18 07:53:00,16.0,3.0,-100.00,ESE,117,2.0,4.0,55,0.00,,,0.00,1.000000,,2013-01-18 14:53:00,
2013-01-18 08:03:00,16.0,3.0,-100.00,ESE,117,2.0,4.0,55,0.00,,,0.00,1.000000,,2013-01-18 15:03:00,
2013-01-18 08:12:00,16.0,3.0,-100.00,ESE,117,2.0,4.0,55,0.00,,,0.00,1.000000,,2013-01-18 15:12:00,
2013-01-18 08:23:00,26.0,3.0,-100.00,West,276,1.0,4.0,37,0.00,,,0.00,168.000000,,2013-01-18 15:23:00,
2013-01-18 08:43:00,26.0,3.0,-100.00,West,276,1.0,4.0,37,0.00,,,0.00,168.000000,,2013-01-18 15:43:00,
2013-01-18 08:54:00,26.0,3.0,-100.00,West,276,1.0,4.0,37,0.00,,,0.00,168.000000,,2013-01-18 15:54:00,
2013-01-18 09:03:00,26.0,3.0,-100.00,West,276,1.0,4.0,37,0.00,,,0.00,168.000000,,2013-01-18 16:03:00,
2013-01-18 09:12:00,26.0,3.0,-100.00,West,276,1.0,4.0,37,0.00,,,0.00,168.000000,,2013-01-18 16:12:00,
2013-01-18 09:23:00,32.0,4.0,-100.00,ENE,66,2.0,3.0,30,0.00,,,0.00,414.000000,,2013-01-18 16:23:00,
2013-01-18 09:43:00,32.0,4.0,-100.00,ENE,66,2.0,3.0,30,0.00,,,0.00,414.000000,,2013-01-18 16:43:00,
2013-01-18 09:53:00,32.0,4.0,-100.00,ENE,66,2.0,3.0,30,0.00,,,0.00,414.000000,,2013-01-18 16:53:00,
2013-01-18 10:03:00,32.0,4.0,-100.00,ENE,66,2.0,3.0,30,0.00,,,0.00,414.000000,,2013-01-18 17:03:00,
2013-01-18 10:13:00,32.0,4.0,-100.00,ENE,66,2.0,3.0,30,0.00,,,0.00,414.000000,,2013-01-18 17:13:00,
2013-01-18 10:23:00,34.0,3.0,-100.00,SE,134,2.0,5.0,26,0.00,,,0.00,593.000000,,2013-01-18 17:23:00,
2013-01-18 10:43:00,34.0,3.0,-100.00,SE,134,2.0,5.0,26,0.00,,,0.00,593.000000,,2013-01-18 17:43:00,
2013-01-18 10:53:00,34.0,3.0,-100.00,SE,134,2.0,5.0,26,0.00,,,0.00,593.000000,,2013-01-18 17:53:00,
2013-01-18 11:03:00,34.0,3.0,-100.00,SE,134,2.0,5.0,26,0.00,,,0.00,593.000000,,2013-01-18 18:03:00,
2013-01-18 11:13:00,34.0,3.0,-100.00,SE,134,2.0,5.0,26,0.00,,,0.00,593.000000,,2013-01-18 18:13:00,
2013-01-18 11:43:00,39.0,2.0,-100.00,SE,133,2.0,5.0,21,0.00,,,0.00,709.000000,,2013-01-18 18:43:00,
2013-01-18 11:53:00,39.0,2.0,-100.00,SE,133,2.0,5.0,21,0.00,,,0.00,709.000000,,2013-01-18 18:53:00,
2013-01-18 12:03:00,39.0,2.0,-100.00,SE,133,2.0,5.0,21,0.00,,,0.00,709.000000,,2013-01-18 19:03:00,
2013-01-18 12:12:00,39.0,2.0,-100.00,SE,133,2.0,5.0,21,0.00,,,0.00,709.000000,,2013-01-18 19:12:00,
2013-01-18 12:22:00,39.0,2.0,-100.00,SE,133,2.0,5.0,21,0.00,,,0.00,709.000000,,2013-01-18 19:22:00,
2013-01-18 12:23:00,40.0,8.0,-100.00,SE,133,2.0,5.0,26,0.00,,,0.00,746.000000,,2013-01-18 19:23:00,
2013-01-18 12:43:00,40.0,8.0,-100.00,SE,133,2.0,5.0,26,0.00,,,0.00,746.000000,,2013-01-18 19:43:00,
2013-01-18 12:53:00,40.0,8.0,-100.00,SE,133,2.0,5.0,26,0.00,,,0.00,746.000000,,2013-01-18 19:53:00,
2013-01-18 13:03:00,40.0,8.0,-100.00,SE,133,2.0,5.0,26,0.00,,,0.00,746.000000,,2013-01-18 20:03:00,
2013-01-18 13:12:00,40.0,8.0,-100.00,SE,133,2.0,5.0,26,0.00,,,0.00,746.000000,,2013-01-18 20:12:00,
2013-01-18 13:43:00,42.0,6.0,-100.00,ENE,78,2.0,5.0,22,0.00,,,0.00,707.000000,,2013-01-18 20:43:00,
2013-01-18 13:53:00,42.0,6.0,-100.00,ENE,78,2.0,5.0,22,0.00,,,0.00,707.000000,,2013-01-18 20:53:00,
2013-01-18 14:03:00,42.0,6.0,-100.00,ENE,78,2.0,5.0,22,0.00,,,0.00,707.000000,,2013-01-18 21:03:00,
2013-01-18 14:13:00,42.0,6.0,-100.00,ENE,78,2.0,5.0,22,0.00,,,0.00,707.000000,,2013-01-18 21:13:00,
2013-01-18 14:22:00,42.0,6.0,-100.00,ENE,78,2.0,5.0,22,0.00,,,0.00,707.000000,,2013-01-18 21:22:00,
2013-01-18 14:43:00,44.0,6.0,-100.00,East,94,2.0,5.0,20,0.00,,,0.00,595.000000,,2013-01-18 21:43:00,
2013-01-18 14:53:00,44.0,6.0,-100.00,East,94,2.0,5.0,20,0.00,,,0.00,595.000000,,2013-01-18 21:53:00,
2013-01-18 15:03:00,44.0,6.0,-100.00,East,94,2.0,5.0,20,0.00,,,0.00,595.000000,,2013-01-18 22:03:00,
2013-01-18 15:12:00,44.0,6.0,-100.00,East,94,2.0,5.0,20,0.00,,,0.00,595.000000,,2013-01-18 22:12:00,
2013-01-18 15:22:00,44.0,6.0,-100.00,East,94,2.0,5.0,20,0.00,,,0.00,595.000000,,2013-01-18 22:22:00,
2013-01-18 15:53:00,42.0,6.0,-100.00,WSW,243,1.0,4.0,22,0.00,,,0.00,421.000000,,2013-01-18 22:53:00,
2013-01-18 16:03:00,42.0,6.0,-100.00,WSW,243,1.0,4.0,22,0.00,,,0.00,421.000000,,2013-01-18 23:03:00,
2013-01-18 16:12:00,42.0,6.0,-100.00,WSW,243,1.0,4.0,22,0.00,,,0.00,421.000000,,2013-01-18 23:12:00,
2013-01-18 16:22:00,42.0,6.0,-100.00,WSW,243,1.0,4.0,22,0.00,,,0.00,421.000000,,2013-01-18 23:22:00,
2013-01-18 16:43:00,36.0,-6.0,-100.00,West,272,3.0,6.0,16,0.00,,,0.00,115.000000,,2013-01-18 23:43:00,
2013-01-18 16:53:00,36.0,-6.0,-100.00,West,272,3.0,6.0,16,0.00,,,0.00,115.000000,,2013-01-18 23:53:00,
2013-01-18 17:02:00,36.0,-6.0,-100.00,West,272,3.0,6.0,16,0.00,,,0.00,115.000000,,2013-01-19 00:02:00,
2013-01-18 17:12:00,36.0,-6.0,-100.00,West,272,3.0,6.0,16,0.00,,,0.00,115.000000,,2013-01-19 00:12:00,
2013-01-18 17:22:00,36.0,-6.0,-100.00,West,272,3.0,6.0,16,0.00,,,0.00,115.000000,,2013-01-19 00:22:00,
2013-01-18 17:43:00,34.0,-6.0,-100.00,West,277,3.0,6.0,17,0.00,,,0.00,13.000000,,2013-01-19 00:43:00,
2013-01-18 17:53:00,34.0,-6.0,-100.00,West,277,3.0,6.0,17,0.00,,,0.00,13.000000,,2013-01-19 00:53:00,
2013-01-18 18:02:00,34.0,-6.0,-100.00,West,277,3.0,6.0,17,0.00,,,0.00,13.000000,,2013-01-19 01:02:00,
2013-01-18 18:12:00,34.0,-6.0,-100.00,West,277,3.0,6.0,17,0.00,,,0.00,13.000000,,2013-01-19 01:12:00,
2013-01-18 18:22:00,34.0,-6.0,-100.00,West,277,3.0,6.0,17,0.00,,,0.00,13.000000,,2013-01-19 01:22:00,
2013-01-18 18:43:00,34.0,-5.0,-100.00,WSW,255,4.0,11.0,18,0.00,,,0.00,0.000000,,2013-01-19 01:43:00,
2013-01-18 18:53:00,34.0,-5.0,-100.00,WSW,255,4.0,11.0,18,0.00,,,0.00,0.000000,,2013-01-19 01:53:00,
2013-01-18 19:02:00,34.0,-5.0,-100.00,WSW,255,4.0,11.0,18,0.00,,,0.00,0.000000,,2013-01-19 02:02:00,
2013-01-18 19:12:00,34.0,-5.0,-100.00,WSW,255,4.0,11.0,18,0.00,,,0.00,0.000000,,2013-01-19 02:12:00,
2013-01-18 19:22:00,34.0,-5.0,-100.00,WSW,255,4.0,11.0,18,0.00,,,0.00,0.000000,,2013-01-19 02:22:00,
2013-01-18 19:43:00,27.0,-4.0,-100.00,NW,312,2.0,9.0,25,0.00,,,-99.99,0.000000,,2013-01-19 02:43:00,
2013-01-18 19:53:00,27.0,-4.0,-100.00,NW,312,2.0,9.0,25,0.00,,,-99.99,0.000000,,2013-01-19 02:53:00,
2013-01-18 20:03:00,27.0,-4.0,-100.00,NW,312,2.0,9.0,25,0.00,,,-99.99,0.000000,,2013-01-19 03:03:00,
2013-01-18 20:12:00,27.0,-4.0,-100.00,NW,312,2.0,9.0,25,0.00,,,-99.99,0.000000,,2013-01-19 03:12:00,
2013-01-18 20:22:00,27.0,-4.0,-100.00,NW,312,2.0,9.0,25,0.00,,,-99.99,0.000000,,2013-01-19 03:22:00,
2013-01-18 20:44:00,29.0,-3.0,-100.00,West,262,3.0,8.0,24,0.00,,,0.00,0.000000,,2013-01-19 03:44:00,
2013-01-18 20:53:00,29.0,-3.0,-100.00,West,262,3.0,8.0,24,0.00,,,0.00,0.000000,,2013-01-19 03:53:00,
2013-01-18 21:02:00,29.0,-3.0,-100.00,West,262,3.0,8.0,24,0.00,,,0.00,0.000000,,2013-01-19 04:02:00,
2013-01-18 21:12:00,29.0,-3.0,-100.00,West,262,3.0,8.0,24,0.00,,,0.00,0.000000,,2013-01-19 04:12:00,
2013-01-18 21:22:00,29.0,-3.0,-100.00,West,262,3.0,8.0,24,0.00,,,0.00,0.000000,,2013-01-19 04:22:00,
2013-01-18 21:43:00,27.0,-3.0,-100.00,North,358,2.0,6.0,26,0.00,,,0.00,0.000000,,2013-01-19 04:43:00,
2013-01-18 21:53:00,27.0,-3.0,-100.00,North,358,2.0,6.0,26,0.00,,,0.00,0.000000,,2013-01-19 04:53:00,
2013-01-18 22:03:00,27.0,-3.0,-100.00,North,358,2.0,6.0,26,0.00,,,0.00,0.000000,,2013-01-19 05:03:00,
2013-01-18 22:12:00,27.0,-3.0,-100.00,North,358,2.0,6.0,26,0.00,,,0.00,0.000000,,2013-01-19 05:12:00,
2013-01-18 22:22:00,27.0,-3.0,-100.00,North,358,2.0,6.0,26,0.00,,,0.00,0.000000,,2013-01-19 05:22:00,
2013-01-18 22:43:00,25.0,-3.0,-100.00,WNW,298,3.0,6.0,28,0.00,,,0.00,0.000000,,2013-01-19 05:43:00,
2013-01-18 22:53:00,25.0,-3.0,-100.00,WNW,298,3.0,6.0,28,0.00,,,0.00,0.000000,,2013-01-19 05:53:00,
2013-01-18 23:02:00,25.0,-3.0,-100.00,WNW,298,3.0,6.0,28,0.00,,,0.00,0.000000,,2013-01-19 06:02:00,
2013-01-18 23:12:00,25.0,-3.0,-100.00,WNW,298,3.0,6.0,28,0.00,,,0.00,0.000000,,2013-01-19 06:12:00,
2013-01-18 23:22:00,25.0,-3.0,-100.00,WNW,298,3.0,6.0,28,0.00,,,0.00,0.000000,,2013-01-19 06:22:00,
2013-01-18 23:43:00,23.0,-3.0,-100.00,West,264,2.0,4.0,31,0.00,,,0.00,0.000000,,2013-01-19 06:43:00,
2013-01-18 23:53:00,23.0,-3.0,-100.00,West,264,2.0,4.0,31,0.00,,,0.00,0.000000,,2013-01-19 06:53:00,